Zurück zum Katalog

STARLINK-34124

AktivKommunikationVLEO
NORAD 64109·PAYLOAD·🇺🇸 United States

Gestartet May 23, 2025 von Vandenberg Space Force Base

Loading…

Nächste Überflüge (nächste 24 Stunden)

TLE

AktuellSource: CelesTrak SupGP

Epoche: Sep 15, 2026, 02:47 UTC

1 64109C 25110P   26258.11645833 -.00021508  00000+0 -69225-3 0  2585
2 64109  53.1592 225.3982 0001626  92.8174 340.1014 15.31683268    11

Verfolge STARLINK-34124 in Echtzeit mit AllMySat

Download on the App Store